Weather History for Laramie, WY

Change the Weather History Date:

Sunday, January 26, 2014

  Actual Average Record
Temperature  
Mean Temperature 28 °F 22 °F  
Max Temperature 44 °F 33 °F 56 °F (1982)
Min Temperature 12 °F 10 °F -27 °F (1996)
Degree Days  
Heating Degree Days 37 43  
Month to date heating degree days 1085 1119  
Since 1 July heating degree days 4608 4792  
Cooling Degree Days 0 0  
Month to date cooling degree days 0 0  
Year to date cooling degree days 0 0  
Moisture  
Dew Point 13 °F    
Average Humidity 56    
Maximum Humidity 84    
Minimum Humidity 28    
Precipitation  
Precipitation T in 0.01 in 0.10 in (1959)
Month to date precipitation 0.10 0.22  
Year to date precipitation 0.10 0.22  
Sea Level Pressure  
Sea Level Pressure 29.93 in    
Wind  
Wind Speed 15 mph (NW)    
Max Wind Speed 38 mph    
Max Gust Speed 48 mph    
Visibility 7 miles    
Events Snow    
T = Trace of Precipitation, MM = Missing Value Source: NWS Daily Summary

Daily Weather History Graph

Daily Weather History Graph

Search for Another Location

Airport:

Trip Planner

Search our weather history database for the weather conditions in past years. The results will help you decide how hot, cold, wet, or windy it might be!

Date:

Astronomy

Jan. 26, 2014 Rise Set
Actual Time 7:19 AM MST 5:11 PM MST
Civil Twilight 6:49 AM MST 5:41 PM MST
Nautical Twilight 6:16 AM MST 6:14 PM MST
Astronomical Twilight 5:43 AM MST 6:47 PM MST
Moon 2:59 AM MST (1/26) 1:03 PM MST (1/26)
Length of Visible Light 10h 51m
Length of Day
9h 52m
Waning Crescent, 23% of the Moon is Illuminated
Jan 26
Waning Crescent
Jan 30
New
Feb 6
First Quarter
Feb 14
Full
Feb 22
Last Quarter

Hourly Weather History & Observations

Time (MST) Temp. Windchill Dew Point Humidity Pressure Visibility Wind Dir Wind Speed Gust Speed Precip Events Conditions
12:53 AM 25.0 °F 15.5 °F 15.1 °F 66% 29.94 in 10.0 mi South 9.2 mph - N/A   Clear
1:53 AM 24.1 °F 15.2 °F 15.1 °F 69% 29.93 in 10.0 mi SSW 8.1 mph - N/A   Clear
2:53 AM 23.0 °F 18.4 °F 14.0 °F 68% 29.91 in 10.0 mi WSW 3.5 mph - N/A   Clear
3:53 AM 21.0 °F 10.6 °F 12.9 °F 71% 29.91 in 10.0 mi West 9.2 mph - N/A   Clear
4:53 AM 23.0 °F 12.4 °F 14.0 °F 68% 29.89 in 10.0 mi WSW 10.4 mph - N/A   Clear
5:53 AM 27.0 °F 15.2 °F 15.1 °F 61% 29.87 in 10.0 mi SW 15.0 mph - N/A   Clear
6:53 AM 28.0 °F 17.5 °F 14.0 °F 56% 29.86 in 10.0 mi WSW 12.7 mph - N/A   Clear
7:53 AM 28.9 °F 18.2 °F 14.0 °F 54% 29.83 in 10.0 mi SSW 13.8 mph - N/A   Clear
8:53 AM 34.0 °F 20.1 °F 14.0 °F 44% 29.80 in 10.0 mi SW 31.1 mph 41.4 mph N/A   Clear
9:53 AM 37.9 °F 25.1 °F 15.1 °F 39% 29.75 in 10.0 mi WSW 33.4 mph 43.7 mph N/A   Clear
10:53 AM 41.0 °F 29.8 °F 14.0 °F 33% 29.80 in 10.0 mi WNW 29.9 mph 41.4 mph N/A   Clear
11:53 AM 44.1 °F 35.0 °F 14.0 °F 30% 29.77 in 10.0 mi WNW 24.2 mph 33.4 mph N/A   Clear
12:53 PM 43.0 °F 33.3 °F 12.0 °F 28% 29.81 in 10.0 mi NW 25.3 mph 38.0 mph N/A   Clear
1:53 PM 39.0 °F 27.2 °F 14.0 °F 36% 29.82 in 10.0 mi NNW 29.9 mph 40.3 mph N/A   Clear
2:53 PM 35.1 °F 22.7 °F 15.1 °F 44% 29.88 in 10.0 mi NNW 25.3 mph 35.7 mph N/A   Mostly Cloudy
3:53 PM 33.1 °F 23.0 °F 17.1 °F 52% 29.93 in 10.0 mi NNW 15.0 mph 25.3 mph N/A   Overcast
4:53 PM 28.9 °F 16.5 °F 21.9 °F 75% 29.95 in 10.0 mi North 18.4 mph - N/A   Overcast
5:53 PM 23.0 °F 13.1 °F 17.1 °F 78% 29.97 in 10.0 mi NNE 9.2 mph - N/A   Overcast
6:18 PM 21.2 °F 7.8 °F 15.8 °F 80% 29.94 in 9.0 mi North 15.0 mph 20.7 mph N/A   Overcast
6:46 PM 17.6 °F 3.2 °F 12.2 °F 79% 29.95 in 8.0 mi North 15.0 mph - 0.00 in   Overcast
6:53 PM 18.0 °F 4.2 °F 12.9 °F 81% 30.05 in 9.0 mi North 13.8 mph - 0.00 in   Overcast
7:53 PM 17.1 °F 2.5 °F 10.9 °F 77% 30.06 in 10.0 mi North 15.0 mph - N/A   Overcast
8:22 PM 15.8 °F 2.1 °F 10.4 °F 79% 29.98 in 10.0 mi North 12.7 mph - N/A   Overcast
8:53 PM 15.1 °F 5.2 °F 10.0 °F 80% 30.06 in 5.0 mi North 6.9 mph - 0.00 in Snow Light Snow
9:17 PM 15.8 °F 6.1 °F 8.6 °F 73% 29.99 in 3.0 mi North 6.9 mph - 0.00 in Snow Light Snow
9:30 PM 14.0 °F 3.9 °F 8.6 °F 79% 29.99 in 2.5 mi NNW 6.9 mph - 0.00 in Snow Light Snow
9:50 PM 14.0 °F 2.9 °F 8.6 °F 79% 29.99 in 4.0 mi North 8.1 mph - 0.00 in Snow Light Snow
9:53 PM 12.9 °F 2.6 °F 9.0 °F 84% 30.05 in 3.0 mi North 6.9 mph - 0.00 in Snow Light Snow
10:05 PM 12.2 °F 0.7 °F 8.6 °F 85% 29.99 in 2.5 mi North 8.1 mph - 0.00 in Snow Light Snow
10:26 PM 12.2 °F 2.9 °F 8.6 °F 85% 30.00 in 1.5 mi NNW 5.8 mph - 0.00 in Snow Light Snow
10:53 PM 12.0 °F 4.1 °F 8.1 °F 84% 30.04 in 1.2 mi North 4.6 mph - 0.00 in Snow Light Snow
11:06 PM 12.2 °F 6.1 °F 8.6 °F 85% 29.99 in 1.0 mi North 3.5 mph - 0.00 in Snow Light Snow
11:27 PM 12.2 °F 6.1 °F 8.6 °F 85% 30.00 in 1.5 mi NNW 3.5 mph - 0.00 in Snow Light Snow
11:53 PM 12.0 °F 4.1 °F 8.1 °F 84% 30.03 in 1.2 mi NNW 4.6 mph - 0.00 in Snow Light Snow